SES-14 (43175 NORAD) Tracking and Keplerian Element Data

This shows tracking and keplerian element data for the satellite.

Feedback or suggestion? Click here.




ElementValue
Catalog43175
NameSES-14
Epoch Orbit2361
Epoch Day157.84702319
Epoch Year2024
RAAN344.8834
Inclination0.0125
Eccentricity7.38E-05
Argument of Perigee92.0516
Mean Anonmoly75.235
Mean Motion1.00270161
Decay Rate-2.76E-06
L11 43175U 18012B 24157.84702319 -.00000276 00000+0 00000+0 0 9999
L22 43175 0.0125 344.8834 0000738 92.0516 75.2350 1.00270161 23617



Live tracking and technical data element details for SES-14 (NORAD 43175). SES-14 can be tracked NOW for your location showing map with azimuth and elevation plus other details from your city location.







IsCatalogInMostPopularTable: catalog: 43175, numindb: 632
Update: records affected: 1



GetName: 43175 SES-14

Hit Count: updated at: Tue, 18 Jun 2024 00:26:03 GMT